Temp
4 3 2 2 2 2 1 0 -1 -1 -1 -2 -2 -2 -3 -3 -3 -3 -3 -3 -3 -3 -3 -4 -3 -3 -3 -3 -2 -2 -1 -1 1 1 2 2 2 2 3 3 3 4 5 6 6 6 6
4 3 3 2 2 2 1 1 -0 -1 -1 -1 -2 -2 -3 -3 -4 -3 -3 -3 -3 -3 -3 -3 -4 -3 -2 -2 -2 -2 -1 -0 1 1 2 2 2 2 3 3 3 4 5 5 6 6 6
4 4 3 2 2 2 1 1 0 -1 -0 -0 -1 -2 -3 -3 -4 -3 -3 -4 -3 -3 -4 -3 -3 -3 -3 -3 -3 -2 -1 -0 0 1 2 2 2 2 3 3 3 4 4 5 5 5 6
4 4 4 3 2 2 2 1 1 -0 -0 1 -0 -2 -4 -3 -4 -3 -4 -4 -4 -3 -3 -3 -3 -4 -3 -4 -2 -2 -1 -1 -0 -0 1 2 1 3 3 3 3 3 4 4 4 5 5
4 4 4 3 2 1 2 2 1 1 0 0 0 -0 -2 -3 -4 -3 -4 -4 -4 -3 -3 -4 -3 -3 -3 -3 -3 -2 -1 -1 -1 -0 0 1 2 2 2 3 3 3 3 3 4 4 4
4 4 4 4 3 2 2 2 1 1 1 0 0 0 -0 -1 -2 -3 -2 -3 -3 -3 -2 -3 -3 -2 -4 -3 -2 -2 -1 -1 -1 -0 0 1 2 2 2 2 3 2 3 3 4 4 4
5 4 4 4 4 3 2 2 2 1 1 1 0 -0 1 0 -1 -2 -1 -1 -1 -2 -2 -3 -3 -3 -3 -2 -2 -2 -2 -2 -1 0 1 1 2 2 2 3 3 4 4 4 4 4 4
5 5 4 4 4 3 3 2 2 2 1 0 0 0 -0 -1 -1 -2 -1 1 -0 -2 -3 -4 -4 -3 -3 -2 -1 -1 -1 -1 -1 0 1 1 2 2 2 3 3 3 4 4 4 4 4
5 5 5 4 4 4 3 3 2 2 2 1 1 1 0 -0 -0 0 0 -0 -1 -1 -2 -3 -3 -2 -2 -2 -1 -1 -1 -1 -0 0 1 1 1 1 2 2 3 3 3 3 3 4 4
5 5 5 5 4 4 4 3 3 2 2 2 2 1 1 1 0 0 0 0 0 0 -1 -2 -2 -2 -2 -2 -1 -1 -1 -0 0 0 1 1 1 1 1 2 2 3 3 3 3 3 2
5 5 5 5 5 4 4 4 4 3 3 2 2 2 2 2 1 1 1 1 1 1 -0 -2 -2 -2 -1 -1 -1 -1 -1 -0 0 0 1 0 0 1 1 1 2 2 2 2 2 2 2
5 5 5 5 5 5 5 4 4 4 3 3 3 3 2 2 2 2 2 1 1 1 -2 -2 -2 -2 -1 -1 -1 -1 -1 -0 -0 0 1 1 1 0 1 1 1 2 2 2 2 2 0
5 5 5 5 5 5 5 4 4 4 4 4 4 3 3 3 3 3 3 2 2 -1 -2 -2 -2 -1 -1 -2 -1 -1 -1 -1 -0 -0 -0 -1 -0 0 0 1 1 2 1 1 1 1 4
5 5 5 5 5 5 5 5 4 5 4 4 4 4 4 4 4 4 3 3 2 -1 -1 -1 -2 -1 -1 -1 -2 -1 -1 -1 -0 -0 -1 -0 -1 -0 -0 -0 -0 0 0 0 2 4 3
5 5 5 5 5 5 5 5 5 5 5 4 4 4 4 4 4 4 4 3 -0 -0 -0 -0 -0 -1 -1 -1 -1 -1 -1 -1 -1 -1 -1 -1 -1 -1 -1 -1 -0 -1 -1 -1 -1 -2 -2
5 5 5 5 4 4 4 5 5 5 5 5 4 4 4 4 4 4 4 2 1 0 -1 -1 -1 -0 -0 -0 -0 -0 -0 -0 -0 -0 0 -0 -2 -1 -1 -1 -1 -1 -1 -2 -1 0 2
5 4 4 5 4 4 4 4 5 5 5 5 4 4 4 4 4 4 4 2 1 0 -0 -0 -0 -0 -0 -0 -0 -0 0 0 0 0 0 0 0 -1 -1 -0 -1 -1 -1 -1 -1 -2 1
4 4 4 4 4 4 4 4 5 5 5 5 4 4 4 4 4 4 3 3 2 2 1 1 0 0 -0 -0 -0 -0 -1 -1 -0 0 0 0 0 -0 -0 0 -0 -0 -1 -1 -0 -2 -2
4 4 4 3 4 4 4 4 4 5 5 5 5 5 4 4 4 3 3 2 2 2 2 1 1 1 1 1 0 1 0 0 -0 -0 -1 -0 -0 -1 -1 -1 -1 -1 -0 -1 -1 -2 -2
3 3 3 3 3 3 3 3 4 4 4 5 5 4 4 4 3 3 3 3 2 2 2 2 1 1 1 1 1 1 1 1 0 0 -0 -1 -1 -0 1 0 0 -0 0 0 -1 -3 -0
3 3 3 3 3 3 3 3 3 3 4 4 4 4 4 4 4 3 2 2 2 2 2 2 2 2 1 1 1 1 0 0 1 0 1 0 0 1 1 0 0 0 -0 -0 -1 -0 -2
2 3 3 3 2 2 2 2 2 3 3 3 3 3 3 3 3 3 2 2 1 1 1 1 1 1 1 1 0 0 0 -0 -1 -0 -0 -0 -1 -0 1 1 0 1 1 -0 -3 -2 -3
2 2 2 2 2 2 2 2 2 2 2 2 2 3 2 2 2 2 2 1 1 1 0 0 1 0 0 0 1 0 -0 -0 -1 -1 -2 -3 -2 -2 -2 -1 -1 0 1 2 1 1 0
1 2 2 2 2 2 1 1 1 1 2 2 2 2 2 1 1 1 1 1 1 0 -0 -0 -0 -0 -0 -0 -1 -0 -0 -0 -1 -1 -2 -3 -3 -4 -3 -2 -1 2 3 3 2 1 2
1 1 1 1 1 1 1 1 1 1 1 1 1 1 1 1 0 0 0 0 -0 -0 -0 -1 -1 -1 -1 -1 -1 -1 0 0 0 -0 -1 -2 -4 -5 -4 -4 2 1 2 1 1 0 1
0 0 0 0 0 1 1 1 0 1 1 1 1 1 1 0 -0 -1 -1 -1 -1 -1 -1 -1 -1 -1 -2 -1 -1 -2 -0 -0 -1 -1 -1 -2 -4 -5 -5 -5 -0 2 1 1 0 0 0
-0 -0 -0 -0 -0 -0 -0 -0 -0 -0 0 0 0 0 1 -0 -0 -0 -1 -1 -1 -1 -1 -1 -2 -2 -2 -2 -3 -2 -2 -1 -1 -1 -0 -2 -5 -6 -6 -5 0 1 0 -1 -1 -0 -1
-1 -1 -1 -0 -0 -0 -1 -1 -1 -1 -1 -0 -0 -0 -0 0 -0 -0 -1 -1 -1 -2 -2 -2 -3 -2 -2 -3 -3 -2 -2 -2 -2 -1 -1 -1 -1 -4 -6 -6 -3 1 -0 -1 -1 -1 -1
-2 -1 -1 -1 -1 -1 -0 -1 -1 -1 -1 -1 -1 -1 -1 -1 -1 -1 -1 -1 -1 -2 -2 -2 -3 -3 -3 -2 -3 -3 -3 -3 -2 -2 -1 -2 -1 -1 -1 1 1 -0 -1 -1 -2 -2 -1
Height
3126 3120 3116 3110 3104 3097 3093 3087 3080 3072 3065 3058 3052 3045 3038 3031 3023 3020 3016 3015 3016 3016 3018 3022 3025 3030 3034 3039 3042 3047 3053 3057 3061 3068 3077 3084 3090 3097 3101 3107 3115 3120 3124 3127 3131 3135 3138
3127 3123 3118 3113 3106 3100 3095 3089 3083 3076 3069 3062 3056 3050 3043 3036 3031 3027 3025 3024 3025 3025 3026 3028 3031 3036 3038 3041 3044 3050 3057 3061 3065 3072 3079 3087 3092 3100 3105 3109 3116 3121 3125 3128 3130 3134 3137
3129 3125 3121 3116 3109 3102 3097 3092 3086 3080 3074 3067 3061 3057 3047 3043 3038 3035 3034 3034 3033 3033 3034 3035 3036 3035 3036 3046 3050 3056 3061 3066 3070 3076 3080 3087 3095 3101 3106 3111 3117 3122 3126 3128 3130 3133 3136
3132 3127 3123 3118 3113 3106 3100 3095 3090 3084 3078 3073 3068 3062 3056 3051 3047 3044 3040 3040 3041 3041 3042 3043 3045 3044 3042 3051 3059 3062 3066 3070 3074 3079 3086 3091 3097 3102 3107 3111 3118 3123 3127 3129 3130 3132 3135
3134 3129 3124 3121 3116 3109 3103 3098 3093 3089 3084 3079 3074 3068 3064 3059 3055 3052 3050 3047 3047 3048 3048 3050 3051 3053 3054 3062 3066 3069 3073 3075 3078 3083 3088 3093 3099 3104 3109 3112 3118 3121 3124 3128 3131 3132 3134
3137 3132 3127 3123 3120 3113 3107 3102 3096 3092 3089 3085 3080 3076 3070 3066 3065 3061 3059 3055 3053 3054 3054 3056 3059 3063 3067 3069 3071 3074 3078 3080 3083 3087 3091 3097 3101 3106 3110 3113 3117 3119 3123 3127 3129 3132 3132
3140 3135 3130 3125 3122 3118 3111 3106 3101 3095 3092 3090 3085 3081 3078 3074 3071 3070 3066 3066 3066 3061 3057 3060 3065 3067 3073 3075 3078 3080 3082 3085 3087 3091 3094 3099 3103 3106 3110 3113 3116 3120 3124 3126 3128 3130 3130
3143 3138 3134 3128 3124 3121 3116 3110 3105 3101 3096 3094 3091 3087 3084 3081 3077 3076 3079 3075 3070 3069 3068 3070 3073 3075 3078 3080 3082 3085 3087 3090 3092 3095 3098 3102 3103 3108 3111 3114 3117 3121 3123 3125 3127 3128 3128
3146 3141 3137 3132 3126 3123 3119 3114 3109 3105 3101 3097 3094 3092 3090 3088 3086 3085 3085 3081 3079 3078 3076 3081 3082 3083 3084 3088 3087 3089 3092 3094 3095 3098 3101 3103 3108 3110 3112 3115 3119 3120 3122 3124 3127 3127 3127
3148 3143 3139 3135 3130 3124 3121 3118 3113 3108 3104 3101 3097 3094 3092 3091 3091 3087 3086 3085 3083 3083 3084 3090 3088 3089 3091 3091 3093 3094 3096 3099 3099 3102 3104 3107 3109 3112 3114 3117 3119 3120 3122 3124 3126 3127 3127
3150 3146 3142 3137 3133 3127 3122 3119 3116 3112 3108 3104 3101 3097 3095 3091 3090 3088 3088 3086 3085 3086 3089 3098 3095 3094 3093 3095 3097 3098 3099 3100 3102 3103 3107 3110 3111 3114 3117 3118 3119 3121 3122 3124 3124 3124 3123
3152 3148 3145 3140 3136 3131 3125 3121 3117 3114 3111 3107 3104 3100 3097 3094 3091 3089 3087 3086 3088 3090 3097 3101 3099 3098 3098 3098 3098 3100 3101 3104 3105 3107 3108 3111 3114 3116 3117 3118 3120 3121 3123 3123 3122 3122 3121
3153 3150 3147 3143 3139 3134 3129 3124 3120 3116 3113 3110 3106 3103 3099 3096 3094 3090 3088 3088 3090 3092 3103 3104 3102 3101 3101 3102 3102 3104 3105 3106 3107 3110 3111 3113 3115 3116 3118 3119 3120 3121 3122 3123 3122 3121 3116
3155 3151 3148 3144 3141 3137 3133 3129 3123 3118 3114 3111 3109 3106 3103 3098 3095 3094 3092 3092 3091 3099 3100 3104 3103 3104 3104 3105 3106 3107 3108 3108 3108 3110 3111 3113 3119 3117 3117 3119 3120 3121 3123 3123 3120 3116 3115
3155 3152 3148 3145 3142 3139 3136 3131 3127 3121 3117 3113 3110 3108 3106 3103 3099 3096 3097 3095 3100 3101 3103 3105 3107 3108 3107 3107 3108 3108 3109 3109 3109 3110 3113 3114 3115 3116 3116 3118 3121 3120 3122 3123 3122 3120 3118
3153 3152 3149 3146 3143 3140 3137 3134 3129 3125 3120 3115 3112 3110 3108 3106 3103 3102 3100 3098 3102 3104 3105 3106 3107 3108 3109 3110 3110 3110 3110 3111 3111 3112 3113 3114 3115 3116 3117 3118 3119 3121 3123 3124 3122 3120 3113
3151 3150 3148 3146 3143 3141 3138 3135 3132 3128 3123 3118 3115 3112 3111 3108 3107 3105 3103 3104 3105 3106 3107 3108 3108 3109 3110 3110 3111 3111 3112 3113 3112 3113 3113 3114 3115 3118 3118 3118 3119 3120 3120 3120 3121 3120 3117
3149 3148 3147 3146 3144 3141 3139 3136 3133 3130 3126 3122 3117 3115 3113 3111 3111 3108 3107 3106 3108 3108 3109 3109 3110 3110 3110 3110 3111 3111 3112 3112 3112 3112 3113 3114 3115 3115 3116 3116 3116 3116 3116 3117 3118 3118 3116
3147 3145 3144 3144 3143 3141 3140 3137 3133 3130 3128 3125 3120 3117 3116 3113 3111 3110 3109 3110 3109 3109 3109 3109 3110 3111 3111 3111 3112 3111 3111 3112 3112 3112 3113 3114 3114 3114 3114 3116 3113 3112 3112 3113 3113 3113 3111
3144 3143 3143 3141 3139 3139 3138 3137 3134 3131 3128 3126 3123 3120 3118 3115 3113 3112 3111 3110 3110 3110 3110 3110 3110 3110 3111 3111 3112 3111 3111 3111 3111 3112 3111 3112 3111 3110 3110 3109 3109 3108 3107 3107 3108 3107 3103
3139 3140 3139 3138 3137 3136 3136 3135 3134 3131 3128 3126 3124 3122 3120 3117 3114 3113 3111 3110 3110 3110 3110 3110 3110 3110 3110 3111 3110 3110 3111 3111 3110 3110 3109 3109 3107 3107 3107 3106 3104 3102 3101 3100 3097 3098 3096
3134 3134 3135 3135 3134 3132 3132 3132 3131 3130 3127 3126 3123 3121 3118 3116 3114 3112 3111 3110 3109 3108 3108 3108 3108 3108 3109 3109 3110 3109 3109 3109 3109 3108 3107 3106 3104 3102 3099 3098 3095 3093 3091 3090 3090 3090 3087
3129 3129 3129 3129 3130 3129 3128 3127 3126 3126 3125 3123 3121 3119 3116 3115 3112 3111 3110 3108 3107 3107 3107 3105 3105 3105 3106 3106 3105 3106 3105 3105 3104 3104 3104 3104 3102 3100 3094 3092 3089 3084 3082 3082 3082 3081 3082
3123 3124 3124 3124 3124 3124 3124 3123 3122 3122 3122 3121 3119 3117 3115 3113 3110 3109 3107 3106 3105 3104 3104 3104 3103 3102 3102 3101 3101 3101 3100 3099 3098 3097 3097 3098 3099 3100 3093 3090 3086 3078 3077 3073 3076 3076 3075
3116 3118 3118 3118 3118 3118 3118 3118 3118 3118 3117 3117 3116 3115 3112 3109 3108 3107 3105 3104 3103 3101 3100 3100 3099 3099 3098 3098 3098 3096 3094 3092 3090 3089 3089 3091 3094 3096 3094 3089 3080 3074 3074 3073 3072 3072 3071
3107 3109 3111 3111 3112 3112 3112 3112 3112 3113 3113 3112 3111 3110 3109 3107 3105 3104 3103 3102 3100 3099 3098 3096 3096 3095 3094 3094 3095 3093 3091 3089 3087 3086 3085 3086 3088 3092 3089 3089 3079 3074 3074 3073 3071 3070 3069
3099 3100 3102 3104 3105 3105 3105 3106 3106 3107 3107 3107 3106 3105 3104 3102 3101 3100 3099 3098 3097 3096 3095 3093 3092 3092 3092 3090 3090 3089 3087 3086 3084 3082 3082 3083 3084 3085 3088 3087 3074 3071 3071 3072 3073 3075 3067
3090 3091 3093 3095 3096 3097 3098 3098 3100 3100 3101 3101 3100 3099 3099 3097 3096 3095 3094 3094 3092 3092 3091 3090 3090 3087 3087 3087 3086 3085 3082 3081 3080 3079 3079 3080 3080 3080 3083 3083 3073 3068 3069 3071 3069 3064 3060
3081 3082 3084 3086 3088 3089 3090 3091 3091 3092 3093 3094 3094 3092 3091 3091 3092 3089 3087 3087 3087 3087 3086 3086 3087 3085 3083 3083 3082 3081 3080 3078 3076 3076 3075 3076 3074 3074 3074 3071 3069 3068 3066 3062 3058 3054 3052
Wind_Speed
28 30 31 32 33 31 29 30 32 32 33 33 34 33 37 30 29 29 28 23 26 21 21 20 25 17 19 23 23 28 26 28 28 30 31 33 32 33 33 32 24 18 20 19 18 19 19
28 30 31 31 33 33 30 29 31 33 35 37 38 35 36 28 32 28 24 24 26 24 23 19 14 10 28 23 29 26 29 25 28 28 29 28 28 26 28 27 22 17 17 17 18 19 19
26 29 31 31 30 33 30 28 30 32 38 38 38 38 32 24 25 25 25 26 26 22 22 21 16 8 29 30 29 26 26 25 27 28 29 28 27 23 26 25 22 19 17 18 18 19 19
32 28 30 32 29 31 32 28 27 30 35 38 36 37 30 26 23 30 27 22 22 25 27 18 14 30 42 34 27 26 25 26 27 27 23 26 24 16 25 22 20 19 15 14 17 18 17
34 30 29 31 30 29 31 29 25 27 30 32 33 34 33 26 19 23 29 29 29 25 25 23 11 28 36 28 26 26 24 24 25 25 26 26 21 21 22 22 21 19 15 14 16 17 16
36 33 29 29 30 29 29 30 24 23 25 28 29 31 34 30 21 19 23 25 22 21 23 22 16 22 26 24 26 25 24 24 22 23 24 24 19 22 20 21 11 15 13 17 13 15 17
34 35 33 29 28 28 27 28 27 21 21 23 26 28 32 32 31 27 26 19 17 28 20 24 23 31 25 24 21 23 23 22 21 19 22 20 19 19 18 15 9 11 9 10 12 13 14
31 33 35 33 29 27 27 27 27 23 18 17 19 25 30 32 32 29 22 24 29 32 34 33 29 28 24 20 22 19 20 21 18 18 18 20 18 17 15 13 10 10 9 9 9 10 13
28 30 33 34 32 28 26 25 26 26 21 14 10 12 19 19 22 22 21 26 29 31 32 28 24 20 20 14 18 17 14 16 16 17 17 15 17 15 13 13 9 9 9 8 8 9 13
25 26 29 31 32 32 27 25 24 25 24 19 13 9 5 5 4 5 10 5 10 16 14 19 15 14 14 14 14 13 12 12 15 14 13 10 14 13 11 10 10 7 7 7 7 6 5
22 22 24 28 30 32 31 26 23 23 24 23 19 14 9 7 5 5 8 7 6 3 5 6 14 9 5 5 13 10 9 10 12 13 6 9 13 12 10 8 8 5 7 6 7 10 11
20 20 21 23 27 30 31 31 26 22 21 23 23 19 16 12 9 7 8 6 7 5 6 6 10 10 8 9 11 10 8 8 10 8 5 12 13 9 8 7 6 4 4 7 9 9 4
18 19 20 20 23 27 29 30 30 25 20 20 22 23 21 17 15 12 9 7 6 9 6 7 10 9 10 12 11 11 11 9 6 6 8 10 9 6 7 6 5 6 3 2 2 2 3
15 17 18 18 19 22 25 28 28 28 23 19 19 21 22 21 17 14 10 12 11 9 11 10 10 9 9 9 8 7 5 6 7 5 12 7 5 8 9 7 4 6 5 2 3 2 2
15 15 15 16 15 18 21 25 27 27 24 21 17 18 18 20 19 14 10 11 7 10 13 12 9 6 6 6 6 5 5 4 3 11 3 5 2 10 7 8 7 4 3 4 3 5 3
14 14 13 14 13 14 17 21 24 25 24 21 19 15 17 17 18 15 14 16 12 13 10 6 4 6 6 5 4 3 3 3 3 5 1 2 3 9 8 7 7 5 3 0 2 3 4
14 15 14 13 13 11 13 16 19 21 24 23 20 16 18 15 13 13 17 17 13 9 7 5 6 6 5 5 4 3 3 3 2 2 2 5 1 4 6 6 6 8 7 6 4 3 3
15 16 15 14 13 12 11 12 14 17 20 22 22 18 19 16 13 12 13 12 11 10 9 7 6 6 5 4 3 3 3 4 5 4 4 4 3 4 9 10 9 11 12 11 5 4 5
16 14 14 14 11 11 12 12 13 13 16 19 22 22 18 19 13 12 9 8 6 5 4 3 3 2 3 3 3 5 4 4 4 4 3 3 4 2 2 7 13 13 13 15 15 12 12
18 16 14 15 14 11 11 11 11 12 14 16 18 18 19 21 16 12 9 5 3 1 1 1 1 1 1 1 1 2 3 3 3 3 4 5 7 8 3 2 6 9 12 14 18 10 12
19 19 18 16 15 15 10 9 9 12 14 16 16 16 18 15 14 11 7 6 4 3 4 4 4 5 4 4 5 7 7 7 8 8 9 9 10 12 14 16 20 23 26 27 31 32 20
21 21 21 19 17 15 13 10 12 13 16 16 17 16 16 14 12 12 9 6 6 7 8 7 8 9 9 9 9 9 8 9 11 12 11 12 12 15 24 20 19 21 21 24 29 34 37
25 24 23 22 21 19 17 15 14 15 17 19 18 16 16 15 13 12 10 10 9 9 8 9 11 11 12 12 15 16 16 16 17 17 17 17 15 12 10 11 19 18 3 3 3 7 12
28 27 26 24 23 22 21 19 17 17 17 17 20 19 17 15 13 13 13 15 10 10 12 12 12 14 12 13 14 16 19 21 23 25 24 23 18 15 15 16 4 3 11 7 6 7 7
32 29 29 29 27 25 23 21 20 20 18 18 19 20 18 16 15 12 11 12 15 16 13 13 16 17 16 15 15 10 10 13 17 20 24 25 21 8 5 7 18 7 3 4 2 3 3
33 33 32 31 30 30 27 24 22 21 20 18 19 20 19 18 13 13 12 13 14 14 16 18 16 15 11 11 9 7 5 5 5 5 7 12 18 13 5 5 4 4 1 6 10 6 5
35 34 33 34 33 30 28 28 25 22 20 19 19 20 20 17 14 16 17 11 10 11 12 12 13 15 15 15 14 11 10 10 6 5 6 9 12 18 14 8 12 13 11 7 3 5 23
36 34 34 34 34 34 30 27 27 24 23 22 21 21 20 20 18 14 12 17 19 17 16 16 15 16 15 13 10 9 9 8 9 12 6 6 7 10 12 9 10 4 12 8 20 27 32
34 35 34 33 33 34 34 30 27 26 25 25 23 23 22 20 18 20 22 25 25 15 13 10 12 15 9 9 9 7 9 8 8 7 11 13 15 9 13 6 16 20 27 34 31 35 34
Wind_Direction
27 29 31 29 28 27 27 26 26 29 26 17 14 17 23 37 42 65 82 75 74 77 101 126 124 160 168 181 163 153 154 153 154 156 163 166 171 176 176 176 172 174 172 167 172 177 182
27 28 32 30 32 31 32 29 27 35 33 25 24 26 26 46 61 67 83 81 85 92 107 114 175 125 185 136 146 135 143 146 146 151 157 165 169 175 178 173 169 167 172 166 169 178 186
27 28 30 33 33 34 35 34 29 32 35 27 19 20 34 49 66 69 75 92 96 94 102 89 81 30 156 123 116 129 136 136 141 143 155 160 166 172 173 169 173 165 168 171 175 181 192
27 29 28 33 33 36 37 37 37 33 43 37 31 35 39 56 73 59 68 75 100 98 97 89 78 109 103 104 114 119 127 134 136 140 150 153 160 168 170 166 161 163 168 169 183 184 194
29 30 30 30 34 32 39 40 37 41 43 46 46 38 40 49 74 64 72 78 89 87 96 97 97 113 96 108 114 117 122 127 132 140 149 149 153 160 161 162 159 167 175 183 189 196 202
28 29 31 30 33 31 33 41 39 42 44 49 48 50 50 47 60 71 77 89 88 85 88 109 95 99 104 105 113 115 117 117 123 136 146 148 146 155 155 160 167 170 172 190 198 214 222
24 27 30 31 29 35 31 36 42 39 48 48 54 60 59 59 65 66 57 52 75 78 88 96 103 109 104 106 111 119 118 120 119 132 145 151 140 153 158 167 173 177 173 188 223 241 254
21 25 27 30 29 30 33 33 40 42 41 55 61 74 64 67 69 67 63 67 72 79 83 90 96 107 105 107 111 117 119 124 122 128 135 141 143 149 154 157 155 174 188 209 235 247 259
17 21 26 27 30 27 31 32 34 41 42 46 62 61 68 74 81 77 56 65 73 76 81 79 83 94 101 102 107 116 119 126 127 127 133 138 141 146 150 157 162 176 191 213 235 258 270
14 17 22 26 28 30 25 32 32 33 41 45 42 48 53 61 79 342 355 46 71 61 67 60 73 76 92 103 107 114 129 135 131 134 127 121 140 144 150 165 166 172 192 211 238 269 259
12 12 18 23 25 29 29 23 31 34 32 37 40 39 40 44 46 30 40 48 68 76 63 31 40 73 103 112 124 118 128 131 141 139 123 137 150 151 163 170 174 198 208 237 264 276 287
7 9 13 20 24 25 28 26 21 28 32 31 35 38 37 30 29 31 36 41 77 94 56 47 53 70 88 105 118 112 121 127 135 136 124 151 159 165 178 176 189 197 233 271 277 276 265
1 5 6 14 20 24 25 26 23 19 25 28 28 30 32 31 34 44 54 70 67 62 107 82 81 87 93 97 111 117 123 134 134 129 135 142 159 167 175 181 204 221 228 282 239 218 275
359 1 3 6 15 18 22 23 24 21 19 22 23 27 29 32 32 40 64 71 69 103 110 114 93 92 94 101 97 108 115 130 140 143 145 153 167 180 189 196 208 220 216 252 276 266 325
352 356 357 357 5 11 13 17 19 23 21 21 22 25 28 31 33 37 59 78 101 110 122 119 103 93 72 82 97 94 87 105 137 150 123 154 160 191 200 206 196 222 230 239 291 312 290
337 344 349 349 355 3 5 8 12 19 24 22 23 23 28 34 38 48 76 92 112 120 127 128 113 110 108 87 73 76 71 106 116 170 322 169 121 199 207 214 223 224 233 250 273 304 281
322 331 340 341 344 352 359 2 6 13 20 25 26 32 27 32 39 54 67 90 99 103 105 101 121 128 126 111 110 100 104 97 113 185 195 163 147 199 214 229 244 237 238 223 229 220 284
309 320 330 336 336 345 356 1 3 12 16 25 30 36 26 27 33 43 66 84 84 86 87 90 100 116 125 122 101 107 147 153 137 132 153 182 187 196 217 232 242 230 227 222 219 214 224
297 306 317 326 328 335 341 346 355 8 17 23 33 33 30 28 27 35 48 62 78 88 78 77 109 99 127 109 124 137 151 156 157 161 170 188 206 197 223 247 245 240 243 239 238 248 227
291 300 307 313 318 324 329 335 350 6 16 18 20 21 17 18 25 23 14 23 27 30 72 111 171 191 224 276 234 221 205 206 219 263 264 277 245 234 274 248 267 251 263 252 237 228 250
281 289 299 307 310 315 322 325 333 342 355 2 10 7 3 356 360 3 5 337 313 284 271 263 260 248 256 267 268 261 253 259 270 277 277 283 268 275 278 282 278 273 268 265 252 254 250
275 281 288 294 298 301 304 301 308 319 331 351 358 358 357 352 342 337 334 321 299 273 267 268 264 261 258 259 259 274 272 278 283 278 272 273 273 282 289 293 279 279 276 273 263 262 262
272 276 281 287 292 296 297 299 302 310 322 337 349 352 349 345 335 326 318 312 297 285 278 264 259 261 268 263 266 270 270 269 266 270 271 273 274 291 281 291 298 291 107 359 348 312 287
272 275 277 281 285 291 295 298 298 305 315 328 342 347 348 342 336 321 310 305 288 290 282 274 270 267 265 266 268 269 271 272 268 266 265 264 271 279 282 306 248 183 330 269 231 329 315
273 275 279 282 284 285 289 292 296 302 311 321 333 341 342 340 335 328 317 308 296 292 280 277 283 277 277 276 284 287 278 275 267 263 257 253 248 258 266 281 290 280 108 63 66 245 177
270 275 278 281 284 286 288 288 292 297 303 309 322 332 334 336 332 321 312 303 298 293 287 287 282 280 273 269 270 254 250 258 265 270 256 239 230 218 251 261 253 218 233 4 345 210 250
269 272 275 278 281 283 286 289 291 293 294 298 305 316 322 323 321 312 307 308 308 310 305 301 279 273 274 271 260 255 250 242 249 239 237 214 215 218 233 263 274 278 251 326 317 296 302
263 266 269 273 278 282 283 285 290 292 290 290 294 299 304 309 307 296 290 296 293 296 291 281 286 281 273 253 248 244 247 241 249 245 254 243 217 212 201 230 274 262 209 300 304 301 300
258 262 264 268 273 277 282 284 286 287 288 287 287 289 291 287 287 284 287 290 281 277 301 287 273 272 255 249 239 241 251 255 253 259 257 256 254 250 226 254 290 296 298 297 293 292 290